Montgomery, AL

3:43 PM CDT on June 26, 2017 (GMT -0500)
Montgomery Regional

Weather History for KMGM - August, 2014

Change the Weather History Date:

Wednesday, August 20, 2014

  Actual Average Record
Temperature  
Mean Temperature 83 °F 81 °F  
Max Temperature 95 °F 92 °F 103 °F (1983)
Min Temperature 71 °F 71 °F 63 °F (1889)
Cooling Degree Days 18 16  
Month to date cooling degree days 349 338  
Year to date cooling degree days 1695 1617  
Since 1 June cooling degree days 1329 1278  
Growing Degree Days 33 (Base 50)    
Moisture  
Dew Point 72 °F    
Average Humidity 70    
Maximum Humidity 93    
Minimum Humidity 46    
Precipitation  
Precipitation 0.00 in 0.12 in 1.12 in (1963)
Month to date precipitation 3.04 2.57  
Year to date precipitation 39.38 35.32  
Sea Level Pressure  
Sea Level Pressure 30.03 in    
Wind  
Wind Speed 4 mph (SW)    
Max Wind Speed 10 mph    
Max Gust Speed 15 mph    
Visibility 10 miles    
Events      
T = Trace of Precipitation, MM = Missing Value Source: NWS Daily Summary

Daily Weather History Graph

Daily Weather History Graph

Search for Another Location

Airport or City:

Trip Planner

Search our weather history database for the weather conditions in past years. The results will help you decide how hot, cold, wet, or windy it might be!

Date:

Astronomy

Aug. 20, 2014 Rise Set
Actual Time 6:12 AM CDT 7:24 PM CDT
Civil Twilight 5:47 AM CDT 7:49 PM CDT
Nautical Twilight 5:16 AM CDT 8:20 PM CDT
Astronomical Twilight 4:45 AM CDT 8:51 PM CDT
Moon 1:58 AM CDT (8/20) 4:03 PM CDT (8/20)
Length of Visible Light 14h 02m
Length of Day
13h 11m
Waning Crescent, 20% of the Moon is Illuminated
Aug 20
Waning Crescent
Aug 25
New
Sep 2
First Quarter
Sep 8
Full
Sep 15
Last Quarter

Hourly Weather History & Observations

Time (CDT) Temp. Heat Index Dew Point Humidity Pressure Visibility Wind Dir Wind Speed Gust Speed Precip Events Conditions
12:53 AM 73.0 °F - 70.0 °F 90% 29.96 in 10.0 mi Calm Calm - N/A   Clear
1:53 AM 73.0 °F - 70.0 °F 90% 29.95 in 10.0 mi Calm Calm - N/A   Clear
2:53 AM 73.0 °F - 70.0 °F 90% 29.96 in 10.0 mi Calm Calm - N/A   Clear
3:53 AM 72.0 °F - 69.1 °F 91% 29.97 in 10.0 mi Calm Calm - N/A   Clear
4:53 AM 72.0 °F - 69.1 °F 91% 29.99 in 8.0 mi SSW 3.5 mph - N/A   Clear
5:53 AM 72.0 °F - 69.1 °F 91% 30.01 in 9.0 mi Calm Calm - N/A   Clear
6:53 AM 73.0 °F - 70.0 °F 90% 30.04 in 10.0 mi Calm Calm - N/A   Clear
7:53 AM 75.0 °F - 71.1 °F 87% 30.06 in 10.0 mi Calm Calm - N/A   Clear
8:53 AM 78.1 °F - 72.0 °F 81% 30.08 in 10.0 mi WSW 3.5 mph - N/A   Clear
9:53 AM 82.0 °F 87.4 °F 73.0 °F 74% 30.09 in 10.0 mi West 3.5 mph - N/A   Clear
10:53 AM 86.0 °F 93.8 °F 73.9 °F 67% 30.09 in 10.0 mi West 4.6 mph - N/A   Clear
11:53 AM 89.1 °F 99.1 °F 75.0 °F 63% 30.07 in 10.0 mi WSW 4.6 mph - N/A   Clear
12:53 PM 91.9 °F 100.7 °F 73.0 °F 54% 30.06 in 10.0 mi West 8.1 mph - N/A   Scattered Clouds
1:53 PM 93.0 °F 101.9 °F 73.0 °F 52% 30.05 in 10.0 mi WSW 10.4 mph - N/A   Partly Cloudy
2:53 PM 93.0 °F 100.7 °F 72.0 °F 50% 30.03 in 10.0 mi West 4.6 mph - N/A   Clear
3:53 PM 95.0 °F 103.2 °F 72.0 °F 47% 30.02 in 10.0 mi WNW 8.1 mph - N/A   Clear
4:53 PM 93.9 °F 102.1 °F 72.0 °F 49% 30.01 in 10.0 mi WSW 5.8 mph - N/A   Clear
5:53 PM 93.0 °F 100.1 °F 71.1 °F 49% 30.01 in 10.0 mi SSW 3.5 mph - N/A   Clear
6:53 PM 88.0 °F 97.5 °F 75.0 °F 65% 30.00 in 10.0 mi SSW 4.6 mph - N/A   Partly Cloudy
7:53 PM 84.0 °F 92.6 °F 75.9 °F 76% 30.04 in 10.0 mi South 3.5 mph - N/A   Clear
8:53 PM 82.9 °F 90.8 °F 75.9 °F 79% 30.06 in 10.0 mi South 3.5 mph - N/A   Clear
9:53 PM 82.0 °F 88.6 °F 75.0 °F 79% 30.08 in 10.0 mi South 4.6 mph - N/A   Clear
10:53 PM 81.0 °F 86.7 °F 75.0 °F 82% 30.10 in 10.0 mi South 4.6 mph - N/A   Clear
11:53 PM 80.1 °F 85.1 °F 75.0 °F 85% 30.10 in 10.0 mi SSW 3.5 mph - N/A   Clear